Location: Blanot
(47.1713°N, 4.2340°E)
Time: 21:05:24
(UTC+00:00)

ATLAS 5 CENTAUR R/B - Pass Details

Date: 14 July 2020
Orbit: 534 x 1124 km, 63.4° (Epoch: 09 August)

Event Time Altitude Azimuth Distance (km) Brightness Sun altitude
Rises 03:18:31 0° 315° (NW) 3,329 5.3 -6.6°
Reaches altitude 10° 03:20:55 10° 308° (NW) 2,483 4.5 -6.3°
Maximum altitude 03:26:21 41° 240° (WSW) 1,332 2.8 -5.6°
Drops below altitude 10° 03:32:33 10° 172° (S) 2,830 4.6 -4.8°
Sets 03:35:28 0° 166° (SSE) 3,844 5.4 -4.5°
